Regional Weather Roundup
Issued by NWS

Home | Current Version | Previous Version | Text Only | Print | Product List | Glossary On
Versions: 1 2 3 4 5 6 7 8 9 10 11 12 13 14 15 16 17 18 19 20 21 22 23 24 25 26 27 28 29 30 31 32 33 34 35 36 37 38 39 40 41 42 43 44 45 46 47 48 49 50
000
ASUS43 KDMX 020607
RWRIA

WEATHER ROUNDUP FOR IOWA
NATIONAL WEATHER SERVICE DES MOINES IA
100 AM CDT WED SEP 02 2015

NOTE: "FAIR" INDICATES FEW OR NO CLOUDS BELOW 12,000 FEET WITH NO
SIGNIFICANT WEATHER AND/OR OBSTRUCTIONS TO VISIBILITY.

* - THESE STATIONS ARE NOT NWS STATIONS...THUS NOT UNDER NWS
QUALITY CONTROL.  THEY ALSO DO NOT REPORT WEATHER SUCH
AS PRECIPITATION OR FOG.

IAZ001>003-012>014-020>022-031>034-043>046-020700-
   NORTHWEST IOWA

CITY           SKY/WX    TMP DP  RH WIND       PRES   REMARKS
CARROLL *      CLOUDY    75  68  78 S14G21    29.93F
CHEROKEE *       N/A     75  69  80 S13       29.90F
DENISON *      MOCLDY    75  68  78 S9G18     29.91F
LE MARS *      CLEAR     73  68  83 S10       29.88F
ORANGE CITY *  CLEAR     73  70  88 S9        29.89F
SHELDON *      CLEAR     73  70  88 S10       29.88F
SIOUX CITY       N/A     74  67  78 S9        29.88S
6HR MIN TEMP:  74; 6HR MAX TEMP:  83;

SPENCER          N/A     76  66  71 S13       29.90F HAZE
6HR MIN TEMP:  75; 6HR MAX TEMP:  80;

STORM LAKE *   CLOUDY    73  68  83 S14       29.93F
$$

IAZ055>058-069>071-079>083-090>094-020700-
   SOUTHWEST IOWA

CITY           SKY/WX    TMP DP  RH WIND       PRES   REMARKS
ATLANTIC *     MOCLDY    75  68  78 S10G17    29.96R
AUDUBON *      MOCLDY    75  68  78 S9G16     29.97S
CLARINDA *     CLOUDY    73  70  88 S10       29.98S
COUNCIL BLFS * PTCLDY    75  68  78 S12G18    29.93F
CRESTON *      CLOUDY    73  70  88 S10G17    29.99F
LAMONI           N/A     73  67  81 S7        30.01S
6HR MIN TEMP:  73; 6HR MAX TEMP:  83;

RED OAK *      MOCLDY    75  70  83 S9        29.95F
SHENANDOAH *   MOCLDY    75  70  83 S9        29.95F
$$

IAZ047>049-059>061-072>074-084-020700-
   CENTRAL IOWA

CITY           SKY/WX    TMP DP  RH WIND       PRES   REMARKS
AMES             N/A     69  68  96 SE3       29.96F FOG
6HR MIN TEMP:  69; 6HR MAX TEMP:  80;

ANKENY *       CLEAR     75  70  83 S8        29.96F
CHARITON *     CLEAR     73  68  83 S8        30.00F
DES MOINES       N/A     76  67  73 S9        29.96F
6HR MIN TEMP:  75; 6HR MAX TEMP:  85;

GRINNELL*        N/A     72  68  88 S6        30.01S
KNOXVILLE *    CLEAR     72  66  83 S6        29.98F
MARSHALLTOWN     N/A     72  68  87 S6        29.98S
6HR MIN TEMP:  72; 6HR MAX TEMP:  82;

PELLA *          N/A     71  71  99 S5        30.01S
PERRY *          N/A     74  69  86 S6        29.96S
$$

IAZ004>006-015-016-023>025-035-036-020700-
   NORTH CENTRAL IOWA

CITY           SKY/WX    TMP DP  RH WIND       PRES   REMARKS
ALGONA *       CLOUDY    73  70  88 S10       29.95R
CLARION *      PTCLDY    72  68  88 S9        29.96S
ESTHERVILLE    CLOUDY    73  68  84 SE10      29.92S THUNDER
6HR MIN TEMP:  73; 6HR MAX TEMP:  79; 6HR PCP:  0.23;

FORT DODGE *   MOCLDY    75  66  73 S12       29.95S
MASON CITY       N/A     72  70  93 S7        29.98S
6HR MIN TEMP:  71; 6HR MAX TEMP:  80;

FOREST CITY *  CLEAR     70  70 100 S7        29.96S
IOWA FALLS *     N/A     72  68  88 S5        29.99S
$$

IAZ007>011-017>019-026>030-037>042-050>054-066-020700-
   NORTHEAST IOWA

CITY           SKY/WX    TMP DP  RH WIND       PRES   REMARKS
CEDAR RAPIDS     N/A     72  70  93 S5        30.01S
6HR MIN TEMP:  71; 6HR MAX TEMP:  80;

CHARLES CITY * PTCLDY    73  73 100 S6        29.99S
CLINTON *        N/A     72  68  88 S5        30.04F
DECORAH *      CLEAR     75  72  88 S7        29.99S
DUBUQUE          N/A     70  68  93 SW7       30.03S
6HR MIN TEMP:  69; 6HR MAX TEMP:  80;

MONTICELLO *   CLEAR     70  68  94 S3        30.01S
OELWEIN *        N/A     70  70 100 S7        30.01S
WATERLOO         N/A     73  69  87 S5        29.97F
6HR MIN TEMP:  73; 6HR MAX TEMP:  83;

$$

IAZ064-065-067-068-078-020700-
   EAST CENTRAL IOWA

CITY           SKY/WX    TMP DP  RH WIND       PRES   REMARKS
DAVENPORT        N/A     74  69  85 S7        30.03S
6HR MIN TEMP:  73; 6HR MAX TEMP:  82;

IOWA CITY        N/A     71  69  93 CALM      30.02S
6HR MIN TEMP:  71; 6HR MAX TEMP:  84;

MT. PLEASANT *   N/A     73  68  83 S5        30.03S
MUSCATINE *    CLEAR     72  68  88 CALM      30.02S
QUAD CITIES      N/A     76  68  76 CALM      30.02S
6HR MIN TEMP:  75; 6HR MAX TEMP:  85;

$$

IAZ062-063-075>077-085>089-095>099-020700-
   SOUTHEAST IOWA

CITY           SKY/WX    TMP DP  RH WIND       PRES   REMARKS
BURLINGTON       N/A     73  70  90 S6        30.03F
6HR MIN TEMP:  73; 6HR MAX TEMP:  84;

FAIRFIELD *    CLEAR     72  68  88 S5        30.02S
FORT MADISON * CLEAR     72  72 100 S6        30.04S
KEOKUK *       CLEAR     75  70  83 S7        30.03S
OSKALOOSA *      N/A     69  67  93 S5        30.01F
CENTERVILLE *  CLEAR     70  68  94 SE7       30.03F
OTTUMWA          N/A     72  69  90 S8        30.00S
6HR MIN TEMP:  72; 6HR MAX TEMP:  81;

WASHINGTON *     N/A    N/A N/A N/A MISG        N/A
$$

ABBREVIATIONS USED IN REMARKS
   TC - TEMPERATURES IN CELSIUS
  WCI - WIND CHILL INDEX
   HX - HEAT INDEX
  VSB - VISIBILITY
$$




USA.gov is the U.S. government's official web portal to all federal, state and local government web resources and services.